sat.trackr.live / text

‹ back to catalog

GPS BIIR-13 (PRN 02)

NORAD 28474 · 2004-045A

PAYLOAD ACTIVE UNKNOWN

§ Identity

Operator
Country
US
Launch date
2004-11-06
Launch site
AFETR
Launch vehicle
Mass (kg)
RCS (m²)
2.51

Purposes: earth_obs, nav

External: N2YO · Heavens-Above · Gunter

§ Orbital elements

Epoch: 2026-05-25T03:00:17.959104Z

Period
718.01 min
Inclination
55.1499°
Eccentricity
0.0169829
Mean motion
2.00554871 rev/d
Perigee alt
19,731.9 km
Apogee alt
20,634.1 km
Semi-major
26,561.1 km
B*
0.0000e+0
RAAN
325.8245°
Arg perigee
315.8216°
Mean anomaly
230.8653°
Rev number
15,796

§ Raw data

GPS BIIR-13 (PRN 02)1 28474U 04045A   26145.12520786 -.00000085  00000+0  00000+0 0  99992 28474  55.1499 325.8245 0169829 315.8216 230.8653  2.00554871157967

JSON: /api/v1/satellites/28474 · /tle

For live sub-satellite position, see the globe view (requires WebGL).

§ Visibility from observer

Set your observer location to see the next 7 days of passes ≥ 10°. The values pass through the URL so the page stays shareable.

No JS? Fill the form by hand. The geolocation button needs JavaScript.